Weather History for KLWC - January, 2014

Change the Weather History Date:

Saturday, January 11, 2014

  Actual Average Record
Temperature  
Mean Temperature 38 °F 29 °F  
Max Temperature 49 °F 39 °F 66 °F (2007)
Min Temperature 27 °F 18 °F -2 °F (1997)
Degree Days  
Heating Degree Days 27 36  
Month to date heating degree days 482 396  
Since 1 July heating degree days 2633 2439  
Cooling Degree Days 0 0  
Month to date cooling degree days 0 0  
Year to date cooling degree days 0 0  
Moisture  
Dew Point 29 °F    
Average Humidity 71    
Maximum Humidity 92    
Minimum Humidity 50    
Precipitation  
Precipitation 0.00 in 0.03 in 0.03 in (2001)
Month to date precipitation 0.07 0.30  
Year to date precipitation 0.07 0.30  
Sea Level Pressure  
Sea Level Pressure 29.84 in    
Wind  
Wind Speed 8 mph (WNW)    
Max Wind Speed 22 mph    
Max Gust Speed 26 mph    
Visibility 8 miles    
Events      
T = Trace of Precipitation, MM = Missing Value Source: NWS Daily Summary

Daily Weather History Graph

Daily Weather History Graph

Search for Another Location

Airport or City:

Trip Planner

Search our weather history database for the weather conditions in past years. The results will help you decide how hot, cold, wet, or windy it might be!

Date:

Astronomy

Jan. 11, 2014 Rise Set
Actual Time 7:39 AM CST 5:18 PM CST
Civil Twilight 7:09 AM CST 5:48 PM CST
Nautical Twilight 6:36 AM CST 6:21 PM CST
Astronomical Twilight 6:04 AM CST 6:53 PM CST
Moon 2:03 PM CST (1/11) 3:45 AM CST (1/11)
Length of Visible Light 10h 38m
Length of Day
9h 39m
Waxing Gibbous, 83% of the Moon is Illuminated
Jan 11
Waxing Gibbous
Jan 15
Full
Jan 23
Last Quarter
Jan 30
New
Feb 6
First Quarter

Hourly Weather History & Observations

Time (CST) Temp. Windchill Dew Point Humidity Pressure Visibility Wind Dir Wind Speed Gust Speed Precip Events Conditions
12:52 AM 36.0 °F 29.0 °F 33.1 °F 89% 29.68 in 6.0 mi WNW 9.2 mph - N/A   Overcast
1:52 AM 35.1 °F 26.9 °F 32.0 °F 89% 29.70 in 6.0 mi WNW 11.5 mph - N/A   Overcast
2:52 AM 35.1 °F 28.6 °F 32.0 °F 89% 29.73 in 5.0 mi West 8.1 mph - N/A   Overcast
3:44 AM 33.1 °F 27.7 °F 30.9 °F 92% 29.73 in 4.0 mi NW 5.8 mph - N/A   Scattered Clouds
3:52 AM 33.1 °F 30.0 °F 30.9 °F 92% 29.74 in 4.0 mi WNW 3.5 mph - N/A   Partly Cloudy
4:52 AM 28.9 °F 21.9 °F 27.0 °F 92% 29.75 in 4.0 mi NW 6.9 mph - N/A   Clear
5:52 AM 30.0 °F 22.4 °F 28.0 °F 92% 29.77 in 6.0 mi NW 8.1 mph - N/A   Clear
6:52 AM 28.9 °F 21.9 °F 26.1 °F 89% 29.79 in 7.0 mi NW 6.9 mph - N/A   Clear
7:52 AM 30.0 °F 26.5 °F 27.0 °F 88% 29.81 in 8.0 mi NNW 3.5 mph - N/A   Overcast
8:52 AM 32.0 °F 28.7 °F 28.9 °F 88% 29.83 in 9.0 mi NW 3.5 mph - N/A   Overcast
9:52 AM 36.0 °F 28.0 °F 30.9 °F 82% 29.85 in 10.0 mi WNW 11.5 mph - N/A   Overcast
10:52 AM 41.0 °F 33.9 °F 33.1 °F 73% 29.87 in 10.0 mi WNW 12.7 mph - N/A   Clear
11:52 AM 44.1 °F 37.7 °F 34.0 °F 68% 29.86 in 10.0 mi WNW 12.7 mph - N/A   Clear
12:52 PM 46.9 °F - 34.0 °F 61% 29.85 in 10.0 mi WNW 17.3 mph 20.7 mph N/A   Clear
1:52 PM 46.9 °F - 30.9 °F 54% 29.85 in 10.0 mi WNW 19.6 mph 26.5 mph N/A   Partly Cloudy
2:52 PM 48.0 °F - 30.9 °F 52% 29.87 in 10.0 mi NW 16.1 mph - N/A   Clear
3:52 PM 48.0 °F - 32.0 °F 54% 29.89 in 10.0 mi WNW 13.8 mph - N/A   Clear
4:52 PM 43.0 °F 38.2 °F 30.0 °F 60% 29.91 in 10.0 mi NW 8.1 mph - N/A   Clear
5:52 PM 37.9 °F 34.4 °F 28.0 °F 68% 29.93 in 10.0 mi SW 4.6 mph - N/A   Clear
6:52 PM 30.0 °F - 25.0 °F 82% 29.93 in 10.0 mi Calm Calm - N/A   Clear
7:52 PM 28.9 °F - 25.0 °F 85% 29.94 in 10.0 mi Calm Calm - N/A   Clear
8:52 PM 27.0 °F - 24.1 °F 89% 29.94 in 10.0 mi Calm Calm - N/A   Clear
9:52 PM 28.0 °F 21.7 °F 24.1 °F 85% 29.94 in 10.0 mi ESE 5.8 mph - N/A   Clear
10:52 PM 30.0 °F 24.1 °F 25.0 °F 82% 29.93 in 10.0 mi East 5.8 mph - N/A   Clear
11:52 PM 32.0 °F 25.6 °F 27.0 °F 82% 29.90 in 10.0 mi ESE 6.9 mph - N/A   Clear